TIANWANG 1B (TW-1B)
1 40927U 15051C   19100.49462366  .00012810  00000-0  20899-3 0  9998
2 40927  97.1475 146.2944 0006376 279.4127 188.1378 15.52701302199271
TIANWANG 1A (TW-1A)
1 40928U 15051D   19100.45076485  .00004150  00000-0  10476-3 0  9996
2 40928  97.1535 133.2781 0010005 334.5404 133.8068 15.40336739198513
LAPAN A2
1 40931U 15052B   19098.83379345  .00000698  00000-0  80790-5 0  9991
2 40931   5.9981 201.9629 0013380 238.2108 121.6833 14.76603172190774
LQSAT
1 40958U 15057A   19100.48292528  .00000030  00000-0  12284-4 0  9999
2 40958  97.9039 171.5272 0019735 102.5365 257.8060 14.73072331188610
CHUBUSAT 2
1 41338U 16012B   19100.42514242  .00000434  00000-0  27147-4 0  9990
2 41338  31.0025 224.9580 0013645 137.3691 222.8006 15.00120407172506
CHUBUSAT 3
1 41339U 16012C   19100.53584058  .00000450  00000-0  28230-4 0  9997
2 41339  31.0120 222.4377 0013148 144.7072 215.4421 15.00298346172511
OUFTI-1
1 41458U 16025C   19100.47461400  .00001380  00000-0  74891-4 0  9998
2 41458  98.1030 183.8139 0166085 229.1672 129.5050 15.05548795162160
E-STAR-2
1 41459U 16025D   19100.47497814  .00001227  00000-0  67528-4 0  9996
2 41459  98.1036 183.5200 0167191 230.3966 128.2392 15.05211397162139
AAUSAT 4
1 41460U 16025E   19100.46862353  .00001930  00000-0  10155-3 0  9995
2 41460  98.0970 184.5845 0157525 224.0401 134.8178 15.06983750162244
NUSAT 1
1 41557U 16033B   19100.52235903  .00002220  00000-0  86338-4 0  9993
2 41557  97.4173 188.4355 0014111 175.5982 184.5383 15.27020575159533
BEESAT 4
1 41619U 16040W   19100.46337088  .00001885  00000-0  83257-4 0  9993
2 41619  97.3746 163.9582 0009691 265.9399  94.0730 15.22921771143324
PRATHAM
1 41783U 16059A   19099.90582601 +.00000053 +00000-0 +19553-4 0  9998
2 41783 098.0751 161.0011 0032397 242.2562 117.5353 14.62982267135340
ALSAT 1N
1 41789U 16059G   19100.43228853  .00000085  00000-0  25217-4 0  9990
2 41789  98.0770 163.3612 0027207 229.8022 130.0803 14.64228193135517
NAYIF 1
1 42017U 17008BX  19099.90143966 +.00002127 +00000-0 +87279-4 0  9995
2 42017 097.4087 167.7003 0007709 064.1527 296.0505 15.25306054119282
LILACSAT-1
1 42725U 98067ME  19087.71781172  .15670676  12603-4  45746-3 0  9992
2 42725  51.6064 319.7683 0009359 299.6698  60.5570 16.44549673105565
MAX VALIER SAT
1 42778U 17036P   19100.16501404  .00001288  00000-0  59544-4 0  9997
2 42778  97.3621 159.3386 0014211 107.1207 253.1586 15.21868478 99660
